Content
SEND FEEDBACK

Daily
Averages
Monthly
Summary
United States of America

SULPHUR, LOUISIANA


Home > North America > United States > Louisiana
Elevation: 10 feet     Latitude: 30 13N     Longitude: 093 23W

WEATHER
 
SELECT A DAY
Number of Records: 187,394;   Date Range: 11/22/06 - 7/22/14
 
SHARE

PRINT THIS DATA

[ ← Previous Day ]
WEATHER ALMANAC - MARCH 6, 2013
[ Next Day → ]
[ °C ]   °F
Weather ElementAverageHighLow
Temperature50 °F68 °F (3:15 pm)33.8 °F (5:55 am)
Dewpoint31.7 °F42.8 °F (7:55 pm)23 °F (2:15 pm)
Humidity56.4 %93 % (9:55 pm)19 % (4:15 pm)
Barometer30.31 in30.41 in (9:35 am)30.25 in (4:35 pm)
Wind Speed5.1 mph13.8 mph (9:15 am)
Wind Gust18.4 mph (9:15 am)
Weather ElementAverage
Visibility10 mi
Wind DirectionSSW (206.5 °)

Weather ElementTotal
Precipitation---
Heating Degree Days14.1 (Base 65)
Growing Degree Days0.9 (Base 50)
Averaged from 68 records on March 6, 2013
WEATHER CONDITIONS BREAKOUT
WIND DIRECTION BREAKOUT
WEATHER BY HOUR - MARCH 6, 2013
[ °C ]   °F
Local TimeTemperatureDewpointHumidityBarometerVisibilityWind DirectionWind SpeedGust SpeedPrecipitationEventsConditions
12:35 AM46.4 °F30.2 °F53 %30.30 in10.0 miNNW (340°)8.1 mphClear
12:55 AM44.6 °F30.2 °F57 %30.30 in10.0 miNNW (340°)8.1 mphClear
1:15 AM42.8 °F30.2 °F61 %30.30 in10.0 miNNW (340°)6.9 mphClear
1:35 AM42.8 °F32.0 °F66 %30.30 in10.0 miNNW (340°)5.8 mphClear
1:55 AM41.0 °F32.0 °F70 %30.30 in10.0 miNNW (330°)5.8 mphClear
2:15 AM41.0 °F32.0 °F70 %30.31 in10.0 miNNW (330°)4.6 mphClear
2:35 AM39.2 °F32.0 °F75 %30.31 in10.0 miNW (320°)4.6 mphClear
2:55 AM37.4 °F32.0 °F81 %30.31 in10.0 miNW (320°)4.6 mphClear
3:15 AM39.2 °F32.0 °F75 %30.31 in10.0 miCalmClear
3:35 AM37.4 °F32.0 °F81 %30.32 in10.0 miNW (320°)4.6 mphClear
3:55 AM37.4 °F32.0 °F81 %30.32 in10.0 miNNW (340°)4.6 mphClear
4:15 AM37.4 °F32.0 °F81 %30.33 in10.0 miNNW (330°)3.5 mphClear
4:35 AM35.6 °F32.0 °F87 %30.33 in10.0 miNNW (340°)4.6 mphClear
4:55 AM35.6 °F32.0 °F87 %30.34 in10.0 miNNW (330°)4.6 mphClear
5:55 AM33.8 °F30.2 °F87 %30.35 in10.0 miNNW (340°)5.8 mphClear
6:15 AM35.6 °F30.2 °F81 %30.36 in10.0 miNNW (330°)3.5 mphClear
6:35 AM35.6 °F30.2 °F81 %30.37 in10.0 miCalmClear
6:55 AM35.6 °F30.2 °F81 %30.38 in10.0 miCalmClear
7:15 AM35.6 °F32.0 °F87 %30.39 in10.0 miWNW (300°)3.5 mphClear
7:35 AM37.4 °F33.8 °F87 %30.39 in10.0 miNNW (340°)3.5 mphClear
7:55 AM42.8 °F33.8 °F70 %30.39 in10.0 miNNW (340°)5.8 mphClear
8:15 AM44.6 °F32.0 °F61 %30.40 in10.0 miNorth (360°)8.1 mphClear
8:35 AM46.4 °F30.2 °F53 %30.40 in10.0 miNorth (360°)10.4 mphClear
8:55 AM50.0 °F28.4 °F43 %30.40 in10.0 miNorth (360°)12.7 mphClear
9:15 AM50.0 °F28.4 °F43 %30.40 in10.0 miNorth (10°)13.8 mph18.4 mphClear
9:35 AM51.8 °F28.4 °F41 %30.41 in10.0 miNE (40°)9.2 mph17.3 mphClear
9:55 AM51.8 °F28.4 °F41 %30.40 in10.0 miNNE (20°)8.1 mphClear
10:15 AM53.6 °F28.4 °F38 %30.40 in10.0 miNorth (10°)6.9 mphClear
10:35 AM55.4 °F28.4 °F36 %30.39 in10.0 miNNE (20°)6.9 mphClear
10:55 AM55.4 °F28.4 °F36 %30.39 in10.0 miNorth (10°)5.8 mphClear
11:15 AM57.2 °F28.4 °F33 %30.39 in10.0 miNorth (360°)6.9 mphClear
11:35 AM59.0 °F28.4 °F31 %30.38 in10.0 miNNE (20°)6.9 mphClear
11:55 AM59.0 °F28.4 °F31 %30.37 in10.0 miNW (320°)6.9 mphClear
12:15 PM60.8 °F28.4 °F29 %30.36 in10.0 miNNW (340°)5.8 mphClear
12:35 PM60.8 °F28.4 °F29 %30.34 in10.0 miNorth (360°)6.9 mphClear
12:55 PM62.6 °F28.4 °F27 %30.33 in10.0 miNorth (350°)12.7 mphClear
1:15 PM64.4 °F28.4 °F26 %30.32 in10.0 miNNW (330°)9.2 mphClear
1:35 PM64.4 °F28.4 °F26 %30.30 in10.0 miNorth (10°)8.1 mphClear
1:55 PM64.4 °F26.6 °F24 %30.30 in10.0 miNorth (360°)11.5 mphClear
2:15 PM64.4 °F23.0 °F21 %30.28 in10.0 miNorth (350°)11.5 mph16.1 mphClear
2:35 PM66.2 °F24.8 °F21 %30.28 in10.0 miNW (320°)8.1 mphClear
2:55 PM64.4 °F23.0 °F21 %30.27 in10.0 miCalmClear
3:15 PM68.0 °F26.6 °F21 %30.27 in10.0 miNW (320°)6.9 mphClear
3:35 PM68.0 °F24.8 °F20 %30.26 in10.0 miNorth (360°)10.4 mphClear
4:15 PM66.2 °F23.0 °F19 %30.26 in10.0 miNNW (340°)6.9 mphClear
4:35 PM64.4 °F24.8 °F22 %30.25 in10.0 miNNW (340°)6.9 mphClear
4:55 PM64.4 °F24.8 °F22 %30.25 in10.0 miNorth (10°)6.9 mphClear
5:15 PM62.6 °F26.6 °F26 %30.25 in10.0 miNorth (360°)4.6 mphClear
5:35 PM60.8 °F28.4 °F29 %30.25 in10.0 miNorth (360°)4.6 mphClear
5:55 PM60.8 °F28.4 °F29 %30.26 in10.0 miCalmClear
6:15 PM59.0 °F30.2 °F34 %30.26 in10.0 miNNW (330°)3.5 mphClear
6:35 PM57.2 °F30.2 °F36 %30.27 in10.0 miCalmClear
6:55 PM53.6 °F35.6 °F51 %30.27 in10.0 miCalmClear
7:15 PM51.8 °F32.0 °F47 %30.26 in10.0 miNE (40°)3.5 mphClear
7:35 PM50.0 °F33.8 °F54 %30.27 in10.0 miSouth (190°)5.8 mphClear
7:55 PM50.0 °F42.8 °F76 %30.27 in10.0 miSSW (210°)3.5 mphClear
8:15 PM51.8 °F42.8 °F71 %30.28 in10.0 miCalmClear
8:35 PM50.0 °F42.8 °F76 %30.28 in10.0 miWSW (250°)3.5 mphClear
8:55 PM46.4 °F41.0 °F81 %30.28 in10.0 miCalmClear
9:15 PM46.4 °F41.0 °F81 %30.27 in10.0 miCalmClear
9:35 PM44.6 °F41.0 °F87 %30.27 in10.0 miNE (40°)3.5 mphClear
9:55 PM42.8 °F41.0 °F93 %30.27 in10.0 miCalmClear
10:15 PM44.6 °F41.0 °F87 %30.26 in10.0 miCalmClear
10:35 PM42.8 °F41.0 °F93 %30.27 in10.0 miWNW (300°)3.5 mphClear
10:55 PM42.8 °F41.0 °F93 %30.27 in10.0 miCalmClear
11:15 PM42.8 °F41.0 °F93 %30.26 in10.0 miCalmClear
11:35 PM44.6 °F42.8 °F93 %30.25 in10.0 miCalmClear
11:55 PM42.8 °F41.0 °F93 %30.26 in10.0 miNW (310°)3.5 mphClear
Hourly data recorded from KUXL, located miles away from Sulphur, Louisiana







STORIES FROM OUR PARTNERS